Location: Hopkins Observatory
(42.6965°N, 73.1843°W)
Time: 09:44:15
(UTC-04:00)

Amateur Radio Satellites - All Passes

Search period start: 16 April 2014 09:14
Search period end: 17 April 2014 09:14
Location: Hopkins Observatory, 42.6965°N, 73.1843°W

Satellite Date Start Highest point End Downlink Frequencies (MHz)
Time Altitude Azimuth
JAS-2 16 Apr 09:28:17 09:32:24 24° 295° (WNW) 09:36:44 435.800 - 435.900 CW/SSB, 435.910 FM
Sapphire 16 Apr 09:29:14 09:33:37 24° 45° (NE) 09:37:58 437.095 MHz 1200 baud AX-25 AFSK
HO-68 16 Apr 09:39:50 09:46:40 45° 99° (E) 09:53:28 435.675 MHz FM
RS-15 16 Apr 10:11:03 10:21:07 37° 325° (NW) 10:31:04 29.354 - 29.394 USB, Beacon 29.352 USB
PCSat 16 Apr 10:14:02 10:19:21 52° 55° (NE) 10:24:37 145.825 MHz
Oscar 11 16 Apr 10:17:52 10:21:58 39° 98° (E) 10:26:03 145.825 FM, Beacon 2401.500 USB
KITSAT 1 16 Apr 11:07:44 11:14:39 29° 38° (NE) 11:21:31 435.175 FM
Sapphire 16 Apr 11:12:07 11:17:27 60° 245° (WSW) 11:22:45 437.095 MHz 1200 baud AX-25 AFSK
HO-68 16 Apr 11:27:46 11:34:14 38° 298° (WNW) 11:40:41 435.675 MHz FM
FUNcube-1 16 Apr 11:33:13 11:37:27 84° 103° (ESE) 11:41:45 145.950 - 145.970 MHz USB
Oscar 11 16 Apr 11:54:42 11:57:54 20° 294° (WNW) 12:01:05 145.825 FM, Beacon 2401.500 USB
Saudisat 1A 16 Apr 11:56:38 12:00:56 49° 118° (ESE) 12:05:15 436.775 MHz
PCSat 16 Apr 11:58:10 12:02:24 24° 253° (WSW) 12:06:37 145.825 MHz
RS-15 16 Apr 12:29:45 12:37:51 22° 360° (N) 12:45:56 29.354 - 29.394 USB, Beacon 29.352 USB
Oscar 19 16 Apr 12:30:09 12:33:56 21° 63° (ENE) 12:37:44 437.125 CW, 437.150 USB
Oscar 16 16 Apr 12:37:18 12:41:29 26° 65° (ENE) 12:45:42 437.025 USB, Beacon 2401.1428
AO-Echo 16 Apr 13:00:06 13:03:31 18° 62° (ENE) 13:06:53 ?
KITSAT 1 16 Apr 13:02:50 13:10:58 82° 241° (WSW) 13:19:01 435.175 FM
Uribyol 2 16 Apr 13:06:11 13:10:23 26° 65° (ENE) 13:14:36 436.500 FM
Gurwin Techsat 1B 16 Apr 13:20:45 13:22:12 11° 56° (NE) 13:23:40 435.225 FM
Saudisat 1A 16 Apr 13:37:12 13:40:47 23° 317° (NW) 13:44:23 436.775 MHz
AO-27 16 Apr 13:43:33 13:48:35 54° 71° (ENE) 13:53:39 436.795 MHz FM
ITAMSAT 1 16 Apr 13:55:04 14:00:12 67° 73° (ENE) 14:05:21 435.822 SSB
Oscar 19 16 Apr 14:07:55 14:12:54 52° 260° (W) 14:17:57 437.125 CW, 437.150 USB
TMSAT-1 16 Apr 14:08:18 14:12:12 21° 63° (ENE) 14:16:07 436.925 FM
Oscar 16 16 Apr 14:15:49 14:20:38 41° 262° (W) 14:25:30 437.025 USB, Beacon 2401.1428
AO-7 16 Apr 14:16:09 14:21:07 18° 47° (NE) 14:26:04 29.400 - 29.500 MHz
JAS-1B 16 Apr 14:23:38 14:29:33 24° 61° (ENE) 14:34:48 435.800 - 435.900 CW/SSB
AO-Echo 16 Apr 14:36:32 14:41:47 66° 258° (WSW) 14:46:57 ?
RS-15 16 Apr 14:44:42 14:54:36 37° 34° (NE) 15:04:35 29.354 - 29.394 USB, Beacon 29.352 USB
Uribyol 2 16 Apr 14:44:47 14:49:39 41° 262° (W) 14:54:32 436.500 FM
Uosat F 16 Apr 14:53:45 14:57:26 21° 63° (ENE) 15:01:08 435.120 FM
Gurwin Techsat 1B 16 Apr 14:55:58 15:01:16 76° 74° (ENE) 15:06:35 435.225 FM
KITSAT 1 16 Apr 15:00:32 15:05:06 16° 260° (W) 15:09:39 435.175 FM
AO-27 16 Apr 15:24:44 15:28:25 19° 268° (W) 15:32:07 436.795 MHz FM
OPAL 16 Apr 15:30:48 15:35:57 58° 103° (ESE) 15:41:05 ?
SO-50 16 Apr 15:32:43 15:35:31 17° 110° (ESE) 15:38:20 436.795 FM
ITAMSAT 1 16 Apr 15:37:11 15:40:10 15° 270° (W) 15:43:11 435.822 SSB
TMSAT-1 16 Apr 15:46:34 15:51:44 54° 260° (W) 15:56:56 436.925 FM
AO-7 16 Apr 16:04:17 16:12:29 71° 68° (ENE) 16:20:43 29.400 - 29.500 MHz
JAS-1B 16 Apr 16:11:15 16:19:42 75° 256° (WSW) 16:26:45 435.800 - 435.900 CW/SSB
Uosat F 16 Apr 16:30:59 16:35:52 51° 260° (W) 16:40:46 435.120 FM
ISS 16 Apr 16:37:30 16:40:43 45° 140° (SE) 16:43:57 145.800 FM
Gurwin Techsat 1B 16 Apr 16:39:09 16:41:49 14° 271° (W) 16:44:29 435.225 FM
RS-15 16 Apr 16:57:11 17:08:09 81° 240° (WSW) 17:19:23 29.354 - 29.394 USB, Beacon 29.352 USB
OPAL 16 Apr 17:10:39 17:14:24 21° 300° (WNW) 17:18:10 ?
SO-50 16 Apr 17:11:13 17:15:37 57° 307° (NW) 17:20:05 436.795 FM
JAS-2 16 Apr 17:56:57 18:01:19 22° 64° (ENE) 18:05:25 435.800 - 435.900 CW/SSB, 435.910 FM
AO-7 16 Apr 17:59:19 18:05:54 26° 266° (W) 18:12:33 29.400 - 29.500 MHz
JAS-1B 16 Apr 18:07:28 18:10:59 13° 271° (W) 18:14:19 435.800 - 435.900 CW/SSB
Hamsat 16 Apr 18:12:20 18:16:30 73° 76° (ENE) 18:20:44 145.90 MHz
UOSAT-12 16 Apr 18:12:40 18:16:49 36° 116° (ESE) 18:21:04 437.025 FM, 437.400 FM
ISS 16 Apr 18:14:31 18:17:34 31° 338° (NNW) 18:20:38 145.800 FM
SO-67 16 Apr 18:38:13 18:41:00 23° 70° (ENE) 18:43:48 435.3500 MHz FM
SO-50 16 Apr 18:55:44 18:57:11 11° 328° (NNW) 18:58:39 436.795 FM
RS-15 16 Apr 19:11:50 19:18:42 19° 261° (W) 19:25:44 29.354 - 29.394 USB, Beacon 29.352 USB
JAS-2 16 Apr 19:40:16 19:46:10 54° 259° (W) 19:51:30 435.800 - 435.900 CW/SSB, 435.910 FM
STRAND 1 16 Apr 19:42:19 19:47:27 82° 104° (ESE) 19:52:32 ?
ISS 16 Apr 19:52:42 19:55:04 18° 358° (N) 19:57:27 145.800 FM
UOSAT-12 16 Apr 19:52:58 19:57:01 30° 314° (NW) 20:01:09 437.025 FM, 437.400 FM
HO-68 16 Apr 20:09:24 20:15:47 37° 62° (ENE) 20:22:12 435.675 MHz FM
SO-67 16 Apr 20:11:23 20:14:06 21° 266° (W) 20:16:50 435.3500 MHz FM
Saudisat 1A 16 Apr 20:22:48 20:27:07 49° 51° (NE) 20:31:22 436.775 MHz
Oscar 11 16 Apr 21:13:50 21:17:43 34° 70° (ENE) 21:21:37 145.825 FM, Beacon 2401.500 USB
STRAND 1 16 Apr 21:23:26 21:25:57 14° 301° (WNW) 21:28:27 ?
ISS 16 Apr 21:29:44 21:32:38 26° 18° (NNE) 21:35:33 145.800 FM
HO-68 16 Apr 21:56:35 22:03:20 45° 261° (W) 22:10:10 435.675 MHz FM
MaSat-1 16 Apr 22:00:53 22:03:34 28° 113° (ESE) 22:05:57 437.345 MHz
Saudisat 1A 16 Apr 22:03:17 22:06:21 19° 249° (WSW) 22:09:24 436.775 MHz
FUNcube-1 16 Apr 22:30:34 22:34:47 74° 75° (ENE) 22:38:58 145.950 - 145.970 MHz USB
Oscar 11 16 Apr 22:50:39 22:53:59 22° 266° (W) 22:57:20 145.825 FM, Beacon 2401.500 USB
ISS 16 Apr 23:06:17 23:09:38 66° 217° (SW) 23:12:58 145.800 FM
MaSat-1 16 Apr 23:41:18 23:42:02 11° 305° (NW) 23:42:46 437.345 MHz
SO-50 17 Apr 00:02:07 00:05:50 23° 43° (NE) 00:09:36 436.795 FM
Sapphire 17 Apr 00:13:54 00:16:58 16° 104° (ESE) 00:20:04 437.095 MHz 1200 baud AX-25 AFSK
PCSat 17 Apr 00:56:44 01:01:43 40° 112° (ESE) 01:06:45 145.825 MHz
OPAL 17 Apr 01:10:30 01:13:25 16° 57° (ENE) 01:16:22 ?
SO-50 17 Apr 01:42:10 01:46:42 53° 241° (WSW) 01:51:16 436.795 FM
KITSAT 1 17 Apr 01:42:48 01:45:22 12° 97° (E) 01:47:57 435.175 FM
Sapphire 17 Apr 01:54:19 01:59:43 75° 301° (WNW) 02:05:10 437.095 MHz 1200 baud AX-25 AFSK
AO-27 17 Apr 01:56:55 02:00:23 18° 92° (E) 02:03:49 436.795 MHz FM
ITAMSAT 1 17 Apr 02:07:58 02:11:59 22° 93° (E) 02:15:57 435.822 SSB
Oscar 19 17 Apr 02:18:35 02:23:41 53° 100° (E) 02:28:45 437.125 CW, 437.150 USB
Oscar 16 17 Apr 02:26:18 02:31:30 67° 102° (ESE) 02:36:39 437.025 USB, Beacon 2401.1428
PCSat 17 Apr 02:40:21 02:45:12 33° 311° (NW) 02:50:06 145.825 MHz
UOSAT-12 17 Apr 02:41:15 02:45:44 41° 49° (NE) 02:50:11 437.025 FM, 437.400 FM
AO-Echo 17 Apr 02:43:35 02:48:03 37° 97° (E) 02:52:25 ?
OPAL 17 Apr 02:46:41 02:51:41 75° 255° (WSW) 02:56:47 ?
Uribyol 2 17 Apr 02:56:20 03:01:30 66° 102° (ESE) 03:06:38 436.500 FM
Gurwin Techsat 1B 17 Apr 03:11:56 03:16:30 29° 95° (E) 03:21:02 435.225 FM
KITSAT 1 17 Apr 03:31:12 03:39:12 66° 116° (ESE) 03:47:14 435.175 FM
AO-27 17 Apr 03:35:11 03:40:16 58° 288° (WNW) 03:45:19 436.795 MHz FM
Sapphire 17 Apr 03:40:57 03:44:06 15° 322° (NW) 03:47:16 437.095 MHz 1200 baud AX-25 AFSK
ITAMSAT 1 17 Apr 03:46:45 03:51:41 46° 290° (WNW) 03:56:36 435.822 SSB
JAS-1B 17 Apr 03:56:35 04:01:07 24° 94° (E) 04:05:42 435.800 - 435.900 CW/SSB
Oscar 19 17 Apr 03:58:49 04:02:39 21° 297° (WNW) 04:06:28 437.125 CW, 437.150 USB
TMSAT-1 17 Apr 04:01:31 04:06:45 58° 101° (E) 04:11:57 436.925 FM
AO-7 17 Apr 04:06:14 04:12:11 21° 91° (E) 04:18:06 29.400 - 29.500 MHz
Oscar 16 17 Apr 04:07:00 04:10:18 17° 299° (WNW) 04:13:36 437.025 USB, Beacon 2401.1428
UOSAT-12 17 Apr 04:21:48 04:25:42 26° 247° (WSW) 04:29:34 437.025 FM, 437.400 FM
AO-Echo 17 Apr 04:22:46 04:26:39 25° 295° (WNW) 04:30:28 ?
Uribyol 2 17 Apr 04:37:09 04:40:26 17° 299° (WNW) 04:43:44 436.500 FM
Uosat F 17 Apr 04:37:53 04:42:42 46° 99° (E) 04:47:28 435.120 FM
Gurwin Techsat 1B 17 Apr 04:51:39 04:56:31 38° 292° (WNW) 05:01:23 435.225 FM
RS-15 17 Apr 05:17:42 05:21:41 13° 95° (E) 05:25:36 29.354 - 29.394 USB, Beacon 29.352 USB
STRAND 1 17 Apr 05:22:15 05:25:32 18° 61° (ENE) 05:28:49 ?
KITSAT 1 17 Apr 05:27:53 05:35:09 35° 318° (NW) 05:42:28 435.175 FM
TMSAT-1 17 Apr 05:42:28 05:46:14 20° 298° (WNW) 05:49:59 436.925 FM
JAS-1B 17 Apr 05:46:43 05:52:07 44° 292° (WNW) 05:57:32 435.800 - 435.900 CW/SSB
AO-7 17 Apr 05:57:31 06:05:51 83° 290° (WNW) 06:14:11 29.400 - 29.500 MHz
Hamsat 17 Apr 05:59:13 06:01:14 13° 90° (E) 06:03:15 145.90 MHz
Uosat F 17 Apr 06:17:21 06:21:11 23° 297° (WNW) 06:25:00 435.120 FM
JAS-2 17 Apr 06:48:53 06:52:07 16° 92° (E) 06:55:29 435.800 - 435.900 CW/SSB, 435.910 FM
STRAND 1 17 Apr 06:59:07 07:04:12 65° 258° (WSW) 07:09:18 ?
RS-15 17 Apr 07:20:35 07:31:42 64° 115° (ESE) 07:42:27 29.354 - 29.394 USB, Beacon 29.352 USB
KITSAT 1 17 Apr 07:29:21 07:33:30 14° 346° (NNW) 07:37:39 435.175 FM
Hamsat 17 Apr 07:33:19 07:37:35 59° 286° (WNW) 07:41:52 145.90 MHz
SO-67 17 Apr 07:34:45 07:37:41 24° 95° (E) 07:40:35 435.3500 MHz FM
AO-7 17 Apr 07:51:47 07:57:29 21° 310° (NW) 08:03:11 29.400 - 29.500 MHz
MaSat-1 17 Apr 08:01:14 08:04:05 53° 245° (WSW) 08:07:25 437.345 MHz
JAS-2 17 Apr 08:32:23 08:37:38 66° 287° (WNW) 08:43:20 435.800 - 435.900 CW/SSB, 435.910 FM
Sapphire 17 Apr 08:59:08 09:02:59 19° 42° (NE) 09:06:50 437.095 MHz 1200 baud AX-25 AFSK
SO-67 17 Apr 09:08:06 09:10:42 20° 291° (WNW) 09:13:18 435.3500 MHz FM
